MILESOVKA Weather Reports


Display with metric or nautical units.
time (UTC)temp
F
wind
direction
speed
MPH
gust
MPH
rain 1hr
in
rain 24hr
in
rain mn
in
humidity
%
barometer
mb
20201027121159 43 230 9.0 0.0 0.00 0.00 0.00 99
20201027111157 43 230 14.0 0.0 0.00 0.00 0.00 93
20201027101154 43 230 9.0 0.0 0.00 0.00 0.00 99
20201027091157 43 230 7.0 0.0 0.00 0.00 0.00 99
20201027081153 39 240 12.0 0.0 0.00 0.00 0.00 99
20201027071203 39 240 16.0 0.0 0.00 0.00 0.00 99
20201027061202 39 240 18.0 0.0 0.00 0.00 0.00 99
20201027051153 39 240 14.0 0.0 0.00 0.00 0.00 99
20201027041136 39 250 16.0 0.0 0.00 0.00 0.00 99
20201027031152 39 240 16.0 0.0 0.00 0.00 0.00 99
20201027021152 39 250 16.0 0.0 0.00 0.00 0.00 99
20201027011157 39 240 14.0 0.0 0.00 0.00 0.00 99
20201027001159 41 240 9.0 0.0 0.00 0.00 0.00 99
20201026231153 41 240 9.0 0.0 0.00 0.00 0.00 99
20201026221154 41 280 14.0 0.0 0.00 0.00 0.00 99
20201026211153 41 280 14.0 0.0 0.00 0.00 0.00 99
20201026201152 41 290 18.0 0.0 0.00 0.00 0.00 99
20201026191157 41 290 20.0 0.0 0.00 0.00 0.00 99
20201026181153 43 310 18.0 0.0 0.00 0.00 0.00 99
20201026171156 45 290 14.0 0.0 0.00 0.00 0.00 99
20201026161152 45 250 14.0 0.0 0.00 0.00 0.00 99
20201026152107 45 240 14.0 0.0 0.00 0.00 0.00 99
20201026141153 45 240 14.0 0.0 0.00 0.00 0.00 99
20201026131157 46 200 16.0 0.0 0.00 0.00 0.00 99